STARLINK BF (44288 NORAD) Tracking and Keplerian Element Data

This shows tracking and keplerian element data for the satellite.

Feedback or suggestion? Click here.




ElementValue
Catalog44288
NameSTARLINK BF
Epoch Orbit338
Epoch Day158.53199397
Epoch Year2019
RAAN107.9944
Inclination52.9997
Eccentricity0.0005339
Argument of Perigee126.1668
Mean Anonmoly233.9818
Mean Motion15.13288728
Decay Rate-0.02495862
L11 44288U 19029BF 19158.53199397 -.02495862 00000-0 -15469+0 0 9999
L22 44288 52.9997 107.9944 0005339 126.1668 233.9818 15.13288728 3386

Live tracking and technical data element details for STARLINK BF (NORAD 44288). STARLINK BF can be tracked NOW for your location showing map with azimuth and elevation plus other details from your city location.

Track the satellite on the map from your city or location and see movement details for azimuth, elevation, latitude, longitude, range, height, and movement on the map or in text.







IsCatalogInMostPopularTable: catalog: 44288, numindb: 52
Update: records affected: 1



GetName: 44288 STARLINK BF

Hit Count: updated at: Fri, 19 Jul 2019 22:40:02 GMT